Fort Stockton, TX

2:39 AM CDT on May 26, 2017 (GMT -0500)
Fort Stockton-Pecos County

Weather History for KFST - October, 2012

Change the Weather History Date:

Tuesday, October 9, 2012

  Actual Average Record
Temperature  
Mean Temperature 71 °F -  
Max Temperature 90 °F 79 °F 93 °F (2014)
Min Temperature 53 °F 55 °F 52 °F (1998)
Cooling Degree Days 6    
Growing Degree Days 21 (Base 50)    
Moisture  
Dew Point 48 °F    
Average Humidity 46    
Maximum Humidity 83    
Minimum Humidity 16    
Precipitation  
Precipitation 0.00 in - - ()
Sea Level Pressure  
Sea Level Pressure 29.87 in    
Wind  
Wind Speed 9 mph (South)    
Max Wind Speed 15 mph    
Max Gust Speed -    
Visibility 10 miles    
Events      
Averages and records for this station are not official NWS values.
T = Trace of Precipitation, MM = Missing Value Source: NWS Daily Summary

Daily Weather History Graph

Daily Weather History Graph

Search for Another Location

Airport or City:

Trip Planner

Search our weather history database for the weather conditions in past years. The results will help you decide how hot, cold, wet, or windy it might be!

Date:

Astronomy

Oct. 09, 2012 Rise Set
Actual Time 7:50 AM CDT 7:26 PM CDT
Civil Twilight 7:26 AM CDT 7:50 PM CDT
Nautical Twilight 6:58 AM CDT 8:18 PM CDT
Astronomical Twilight 6:30 AM CDT 8:46 PM CDT
Moon 1:52 AM CDT (10/9) 3:34 PM CDT (10/9)
Length of Visible Light 12h 24m
Length of Day
11h 35m
Last Quarter, 36% of the Moon is Illuminated
Oct 9
Last Quarter
Oct 15
New
Oct 21
First Quarter
Oct 29
Full
Nov 6
Last Quarter

Hourly Weather History & Observations

Time (CDT) Temp. Dew Point Humidity Pressure Visibility Wind Dir Wind Speed Gust Speed Precip Events Conditions
12:53 AM 59.0 °F 48.0 °F 67% 29.91 in 10.0 mi South 12.7 mph - N/A   Clear
1:53 AM 57.0 °F 48.0 °F 72% 29.89 in 10.0 mi SSE 6.9 mph - N/A   Clear
3:53 AM 53.1 °F 48.0 °F 83% 29.88 in 10.0 mi Calm Calm - N/A   Clear
4:53 AM 54.0 °F 48.0 °F 80% 29.87 in 10.0 mi South 8.1 mph - N/A   Clear
5:53 AM 59.0 °F 48.9 °F 69% 29.86 in 10.0 mi SSW 11.5 mph - N/A   Clear
6:53 AM 62.1 °F 48.9 °F 62% 29.86 in 10.0 mi SSW 11.5 mph - N/A   Clear
7:53 AM 63.0 °F 48.9 °F 60% 29.88 in 10.0 mi SW 15.0 mph - N/A   Clear
8:53 AM 66.0 °F 50.0 °F 56% 29.91 in 10.0 mi SW 9.2 mph - N/A   Clear
9:53 AM 73.9 °F 51.1 °F 45% 29.91 in 10.0 mi SW 8.1 mph - N/A   Clear
10:53 AM 80.1 °F 46.9 °F 31% 29.91 in 10.0 mi West 10.4 mph - N/A   Clear
11:53 AM 84.0 °F 43.0 °F 24% 29.91 in 10.0 mi West 10.4 mph - N/A   Clear
12:53 PM 86.0 °F 42.1 °F 21% 29.89 in 10.0 mi WNW 8.1 mph - N/A   Clear
1:53 PM 89.1 °F 37.0 °F 16% 29.86 in 10.0 mi WNW 5.8 mph - N/A   Clear
2:53 PM 88.0 °F 46.9 °F 24% 29.84 in 10.0 mi NNE 8.1 mph - N/A   Clear
3:53 PM 89.1 °F 45.0 °F 22% 29.83 in 10.0 mi North 4.6 mph - N/A   Clear
4:53 PM 88.0 °F 45.0 °F 22% 29.82 in 10.0 mi ENE 4.6 mph - N/A   Clear
5:53 PM 88.0 °F 44.1 °F 22% 29.81 in 10.0 mi East 6.9 mph - N/A   Clear
6:53 PM 82.9 °F 52.0 °F 34% 29.82 in 10.0 mi ESE 12.7 mph - N/A   Clear
7:53 PM 78.1 °F 52.0 °F 40% 29.84 in 10.0 mi ESE 9.2 mph - N/A   Clear
8:53 PM 75.0 °F 51.1 °F 43% 29.86 in 10.0 mi SE 10.4 mph - N/A   Clear
9:53 PM 72.0 °F 51.1 °F 48% 29.87 in 10.0 mi SSE 13.8 mph - N/A   Clear
10:53 PM 70.0 °F 51.1 °F 51% 29.88 in 10.0 mi SSE 10.4 mph - N/A   Clear
11:53 PM 68.0 °F 52.0 °F 56% 29.88 in 10.0 mi SSE 10.4 mph - N/A   Clear